Flag for U.S.A. Weather past 2 weeks in Centennial, Colorado, U.S.A.

Now
61 °F

Partly sunny.


Feels Like: 61 °F
Forecast: 47 / 73 °F
Wind: 6 mph from Southwest

Location: Centennial Airport

Current Time: May 3, 2015 at 9:03:09 AM

Latest Report: May 3, 2015 at 7:53 AM


Visibility: 10 mi

Pressure: 29.84 "Hg

Humidity: 42%

Dew point: 38 °F

Location of CentennialLocation

Historic Weather in Centennial — Graph

°F

Centennial temperature yesterday

Maximum temperature yesterday: 72 °F (at 2:53 PM)
Minimum temperature yesterday: 49 °F (at 12:53 AM)
Average temperature yesterday: 60 °F

Past Weeks' High & Low Weather Summary

 TemperatureHumidityPressure
High75 °F (Apr 30, 1:53 PM)100% (Apr 19, 4:53 AM)30.37 "Hg (Apr 19, 4:53 AM)
Low32 °F (Apr 20, 1:53 AM)18% (Apr 30, 1:53 PM)29.56 "Hg (Apr 24, 2:53 PM)
Average50 °F60%29.92 "Hg
* Reported Apr 18 6:53 AM — May 3 6:53 AM, Centennial, Weather by CustomWeather, © 2015

Note: Actual official high and low records may vary slightly from our data, if they occured in-between our weather recording intervals... More about our weather records

Advertising

Centennial weather history for previous 24 hours

 ConditionsComfort  
Time TempWeatherWind HumidityBarometerVisibility
6:53 AM
Sun, May 3
56 °FPartly cloudy.15 mph47%29.82 "Hg10 mi
5:53 AM55 °FPartly cloudy.12 mph45%29.80 "Hg10 mi
4:53 AM55 °FPassing clouds.13 mph47%29.79 "Hg10 mi
3:53 AM54 °FPassing clouds.14 mph49%29.80 "Hg10 mi
2:53 AM55 °FPassing clouds.13 mph49%29.78 "Hg10 mi
1:53 AM50 °FPassing clouds.6 mph66%29.83 "Hg10 mi
12:53 AM50 °FPassing clouds.10 mph66%29.85 "Hg10 mi
11:53 PM
Sat, May 2
50 °FPassing clouds.9 mph68%29.86 "Hg10 mi
10:53 PM50 °FPartly cloudy.6 mph71%29.88 "Hg10 mi
9:53 PM51 °FPassing clouds.7 mph66%29.90 "Hg10 mi
8:53 PM54 °FPartly sunny.5 mph59%29.88 "Hg10 mi
7:53 PM59 °FScattered clouds.13 mph44%29.85 "Hg10 mi
6:53 PM64 °FBroken clouds.7 mph45%29.82 "Hg10 mi
5:53 PM66 °FBroken clouds.12 mph36%29.82 "Hg10 mi
4:53 PM69 °FBroken clouds.9 mph29%29.79 "Hg10 mi
3:53 PM70 °FBroken clouds.18 mph28%29.80 "Hg10 mi
2:53 PM72 °FBroken clouds.7 mph25%29.77 "Hg10 mi
1:53 PM71 °FBroken clouds.7 mph27%29.82 "Hg10 mi
12:53 PM68 °FBroken clouds.3 mph28%29.86 "Hg10 mi
11:53 AM70 °FBroken clouds.No wind23%29.88 "Hg10 mi
10:53 AM68 °FPartly sunny.5 mph30%29.90 "Hg10 mi
9:53 AM65 °FBroken clouds.7 mph37%29.91 "Hg10 mi
Weather by CustomWeather, © 2015

See weather overviewHow to use our weather pages